Regional Weather Roundup
Issued by NWS

Home | Current Version | Previous Version | Graphics & Text | Print | Product List | Glossary On
Versions: 1 2 3 4 5 6 7 8 9 10 11 12 13 14 15 16 17 18 19 20 21 22 23 24 25 26 27 28 29 30 31 32 33 34 35 36 37 38 39 40 41 42 43 44 45 46 47 48 49 50
693
ASUS45 KBOU 261310
RWRCO

WEATHER ROUNDUP FOR COLORADO
NATIONAL WEATHER SERVICE DENVER/BOULDER CO
700 AM MDT THU APR 26 2018

NOTE: "FAIR" INDICATES FEW OR NO CLOUDS BELOW 12000 FEET WITH NO
SIGNIFICANT WEATHER AND/OR OBSTRUCTIONS TO VISIBILITY.

COZ001>005-013-030-031-261400-
...NORTHWEST COLORADO...

CITY           SKY/WX    TMP DP  RH WIND       PRES   REMARKS
CRAIG          FAIR      33  25  72 NW3       30.27R
HAYDEN         FAIR      33  21  61 CALM      30.28R
MEEKER         FAIR      32  25  75 SE3       30.26R
RANGELY        FAIR      46  24  42 NE24G31   30.23S
RABBIT EARS PA FAIR      27  19  74 N8        30.30R WCI  18
STEAMBOAT SPGS FAIR      31  22  69 CALM      30.26R
WALDEN         CLOUDY    32  21  64 NW8       30.30R WCI  25
$$

COZ006>008-011-261400-
...WEST CENTRAL VALLEYS...

CITY           SKY/WX    TMP DP  RH WIND       PRES   REMARKS
GRAND JUNCTION FAIR      44  16  32 CALM      30.18R
MONTROSE       FAIR      34  17  50 SE7       30.23R WCI  28
EAGLE          FAIR      32  19  58 CALM      30.27R
RIFLE          FAIR      37  24  59 VRB5      30.22R
DELTA          FAIR      41  19  40 NE3       30.20R
NUCLA          FAIR      37   5  25 SE6       30.23R
$$

COZ017>023-064>068-261400-
...SOUTHWEST COLORADO...

CITY           SKY/WX    TMP DP  RH WIND       PRES   REMARKS
DURANGO        FAIR      31   7  36 E3        30.13R
CORTEZ         FAIR      32  10  40 E7        30.15R WCI  26
PAGOSA SPRINGS FAIR      29  10  44 CALM      30.17S
TELLURIDE      FAIR      36  11  35 CALM      30.28R
WOLF CREEK PAS FAIR      30   5  34 CALM      30.35S
$$

COZ009-010-012-014-032>034-037-058>063-261400-
...CENTRAL COLORADO...

CITY           SKY/WX    TMP DP  RH WIND       PRES   REMARKS
ASPEN          FAIR      32  18  56 S5        30.23R WCI  27
BUENA VISTA    FAIR      39  16  38 NW10      30.20R
COPPER MTN     NOT AVBL
BERTHOUD PASS  FAIR      18   7  62 W10G16    30.29S WCI   6
COTTONWOOD PAS FAIR      41   9  26 N5        30.26R
GUNNISON       FAIR      26  15  63 CALM      30.25R
GRANBY         CLOUDY    36  20  52 W9        30.26R
KREMMLING      FAIR      43  21  42 NW10      30.27R
LEADVILLE      FAIR      28  15  58 N7        30.25R WCI  21
MONARCH PASS   FAIR      28   9  43 NW17G23   30.40R WCI  16
SALIDA         FAIR      33  19  57 CALM      30.27R
SUNLIGHT       FAIR      30  12  47 N7        30.35R WCI  23
WILKERSON PASS MOCLDY    25  18  74 NE14G20   30.30R WCI  13
$$

COZ069>075-261400-
...SAN LUIS VALLEY/SANGRE DE CRISTO MOUNTAINS...

CITY           SKY/WX    TMP DP  RH WIND       PRES   REMARKS
ALAMOSA        FAIR      33  11  39 S3        30.16R
DEL NORTE      FAIR      37   8  30 W9        30.19R
LA VETA PASS   FAIR      30  18  59 NE14G21   30.36R WCI  20
SAGUACHE       NOT AVBL
$$

COZ035-036-038>040-261400-
...NORTHERN COLORADO FRONT RANGE...

CITY           SKY/WX    TMP DP  RH WIND       PRES   REMARKS
DENVER INTL AP MOCLDY    44  29  55 N21G35    30.20R
AURORA         MOCLDY    43  29  58 N20G29    30.22R
FRONT RANGE AP MOCLDY    45  30  57 N21G26    30.22R
ERIE MUNI ARPT FAIR      46  28  49 NE20G26   30.25R
BOULDER MUN AP FAIR      45  27  49 CALM      30.21R
CENTENNIAL     MOCLDY    44  28  53 N13       30.22R
BROOMFIELD     NOT AVBL
FORT COLLINS   FAIR      45  30  55 MISG      30.22R
LONGMONT       FAIR      49  29  47 N15G25    30.21R
$$

COZ041-046-047-076>085-087-088-261400-
...PIKES PEAK/PALMER DIVIDE AND SOUTHERN FOOTHILLS...

CITY           SKY/WX    TMP DP  RH WIND       PRES   REMARKS
COLO. SPRINGS  FAIR      44  25  47 NW20G35   30.21R
A. F. ACADEMY  FAIR      42  24  48 N15       30.22R
SCHRIEVER AFB  NOT AVBL
CHEYENNE MTN   FAIR      42  21  44 NW21G30   30.15R
ELLICOTT         N/A    N/A N/A N/A N31G46    30.13R
FALCON         FAIR      39  22  50 N23G32    30.20R
FORT CARSON    FAIR      47  23  39 N39G53    30.13R
LIMON          FAIR      41  27  57 N21G36    30.16R
MONUMENT HILL  FAIR      36  27  69 N15G25    30.25R
CANON CITY     FAIR      46  28  49 NW10      30.11R
WALSENBURG     NOT AVBL
TRINIDAD       FAIR      46  24  42 NW18G29   30.15R
$$

COZ042>045-048>051-090-091-261400-
...NORTHEAST COLORADO...

CITY           SKY/WX    TMP DP  RH WIND       PRES   REMARKS
GREELEY ARPT   FAIR      45  31  58 N24G33    30.21R
AKRON          FAIR      45  30  55 N30G43    30.14R
BURLINGTON     FAIR      48  32  53 N23G38    30.04R
WRAY           FAIR      50  32  50 N26G41    30.06R
YUMA           FAIR      45  25  45 NW26G37   30.10R
STERLING       NOT AVBL
HOLYOKE        FAIR      48  32  53 N22       30.10R
FORT MORGAN    CLOUDY    47  26  44 N31G37    30.16R
$$

COZ086-089-092>099-261400-
...SOUTHEAST COLORADO...

CITY           SKY/WX    TMP DP  RH WIND       PRES   REMARKS
PUEBLO         FAIR      52  27  38 N32G49    30.10R
LA JUNTA       FAIR      51  28  41 N28G45    30.05R
LAMAR          FAIR      41  32  70 N5        29.99R
SPRINGFIELD      N/A     43  32  65 NW22G31   29.97R
$$




USA.gov is the U.S. government's official web portal to all federal, state and local government web resources and services.